www.pogodaiklimat.ru

Погода и климат >> Архив погоды >> Гондурас >> Чолутека


ПОГОДА в Чолутеке

  • Прогноз погоды в Чолутеке
  • Монитор погоды в Чолутеке

АРХИВ ПОГОДЫ в Чолутеке

Время (UTC), дата Ветер
(напр.,м/с)
 
Видим.   Явления Облачность Т
(С)
Тd
(С)
f
(%)
Тe
(С)
Тes
(С)
Комфортность P
(гПа)
Po
(гПа)
Тmin
(С)
Tmax
(С)
R
(мм)
R24
(мм)
S
(см)
12 13.06 С 2 15 км мгла 8/3 900 м
[Sc Ac As]
+24.3 +23.9 98 +33 +33 очень
душно
1014.1 1008.4 +24.3 +34.0 18
15 13.06 штиль 0 20 км мгла {туман} 8/3 900 м
[Cu hum Ac trans]
+30.2 +21.9 61 +39 +45 очень
душно
1012.6 1006.9
18 13.06 штиль 0 20 км мгла {туман} 8/6 900 м
[Cu med, cong Ac trans]
+33.6 +22.7 53 +43 +51 опасность
перегрева
1011.7 1006.0 +24.3 +33.6
21 13.06 Ю 2 6000 м осадки на расстоянии {туман} 9/8 900 м
[Cb cap Ac cuf]
+32.0 +25.3 68 +46 +48 опасность
перегрева
1011.7 1006.2
00 14.06 штиль 0 10 км в посл. час дождь {гроза} 10/4 900 м
[Cb cap As op]
+26.0 +24.3 90 +36 +36 очень
душно
1012.7 1007.0 +24.3 +33.6 0.7
12 14.06 С 4 20 км мгла 9/3 900 м
[Sc Ac As]
+25.4 +22.6 85 +33 +34 очень
душно
1011.1 1007.4 +25.4 +33.6 9
15 14.06 СВ 5 10 км мгла {туман} 9/3 900 м
[Cu hum Ac As]
+28.2 +23.4 75 +38 +40 очень
душно
1013.7 1008.0
18 14.06 С 6 20 км мгла {туман} 6/3 900 м
[Cu hum Cs]
+30.4 +24.6 71 +43 +48 опасность
перегрева
1012.7 1007.0 +25.4 +33.4
21 14.06 Ю 4 20 км мгла {туман} 9/5 1020 м
[Cu med, cong Cs]
+34.0 +26.4 65 +51 +54 опасность
перегрева
1011.7 1006.0
00 15.06 штиль 0 10 км мгла {туман} 6/3 900 м
[Cu hum Ci fib]
+31.0 +26.9 79 +48 +48 опасность
перегрева
1012.4 1006.7 +25.4 +35.4
15 15.06 С 3 10 км мгла {туман} 3/3 900 м
[]
+31.0 +22.1 59 +40 +47 очень
душно
1012.6 1006.9
18 15.06 С 4 10 км мгла {туман} 3/3 1020 м
[Cu hum Ci fib]
+33.8 +22.3 51 +43 +54 опасность
перегрева
1012.1 1006.4 +25.3 +33.8
21 15.06 СВ 3 10 км мгла {туман} 4/4 1020 м
[Cu hum]
+36.4 +25.3 53 +50 +56 опасность
перегрева
1011.1 1005.4
00 16.06 С 2 10 км мгла {туман} 3/3 1020 м
[Cu hum]
+33.2 +22.8 55 +43 +43 опасность
перегрева
1012.1 1006.4 +25.4 +36.4
12 16.06 штиль 0 20 км мгла 9/1 900 м
[Sc Cs]
+24.0 +21.3 85 +30 +31 очень
душно
1014.2 1008.5 +24.0 +36.4
15 16.06 С 5 10 км мгла {туман} 9/3 900 м
[Cu hum Cs]
+31.4 +24.0 65 +43 +47 опасность
перегрева
1014.2 1008.5
18 16.06 С 2 20 км мгла {туман} 9/6 1020 м
[Cu hum Ci fib]
+34.0 +26.5 65 +51 +58 опасность
перегрева
1013.2 1007.5 +24.0 +34.0
21 16.06 Ю 3 20 км мгла {туман} 9/8 1020 м
[Cb cap Ci ing]
+35.8 +29.6 71 +62 +63 опасность
перегрева
1011.4 1005.7
15 17.06 С 6 20 км мгла {туман} 5/1 840 м
[Cu hum Ci fib]
+30.8 +21.6 58 +39 +43 очень
душно
1012.9 1007.2
18 17.06 СВ 5 20 км мгла {туман} 5/3 1020 м
[Cu hum Cs]
+35.6 +21.8 45 +44 +51 опасность
перегрева
1012.2 1006.5 +27.4 +35.6
21 17.06 СВ 4 20 км мгла {туман} 6/4 1020 м
[Cu hum Cs]
+36.8 +20.7 39 +43 +47 опасность
перегрева
1010.6 1004.9
12 18.06 штиль 0 10 км мгла 4/1 900 м
[Cu hum Ci fib]
+27.2 1012.7 1007.0 +27.2 +36.8
15 18.06 СВ 5 20 км мгла {туман} 5/5 1020 м
[Cu hum]
+32.8 +25.4 65 +47 +50 опасность
перегрева
1013.2 1007.5
18 18.06 С 4 20 км мгла {туман} 6/6 1020 м
[Cu hum]
+35.8 +25.0 54 +49 +55 опасность
перегрева
1012.2 1006.5 +27.2 +35.8
21 18.06 С 5 20 км мгла {туман} 6/4 1020 м
[Cu hum Ci fib]
+36.6 +25.7 54 +52 +55 опасность
перегрева
1010.7 1005.0
00 19.06 штиль 0 20 км мгла {туман} 8/4 1020 м
[Cu hum Ci fib]
+34.0 +25.7 62 +49 +49 опасность
перегрева
1011.7 1006.0 +27.2 +37.2
12 19.06 С 3 20 км мгла 6/1 900 м
[Cu hum Cc]
+27.8 +23.1 76 +37 +38 очень
душно
1013.2 1007.5 +27.8 +37.2
15 19.06 С 3 20 км мгла {туман} 6/6 1020 м
[Cu hum]
+31.6 +23.1 61 +42 +47 опасность
перегрева
1011.3 1005.6
18 19.06 С 3 10 км мгла {туман} 9/9 1020 м
[Sc]
+35.2 +24.5 54 +48 +50 опасность
перегрева
1010.8 1005.1 +27.8 +35.2
21 19.06 С 2 20 км мгла {туман} 6/6 1020 м
[Cu hum]
+37.4 +25.5 51 +52 +56 опасность
перегрева
1010.4 1004.7

 

Местоположение метеостанции Чолутека (Гондурас): широта 13.30 долгота -87.18 высота над уровнем моря 48 м.

В архиве по умолчанию представлена погода в Чолутеке за последнюю неделю. Архивные данные за месяц целиком и за предыдущие месяцы, начиная с января 2011 года, Вы можете получить, выбрав интересующий диапазон дат из раскрывающегося списка и нажав кнопку "Ввод!".


*Определитесь, кто Вы:
робот инопланетянин человек

Внимание! Время в таблицах - всемирное. Для получения местного времени необходимо прибавить поправку, которая равна -6 ч.

Смотрите также архив погоды в соседних городах и на ближайших метеорологических станциях:

Погода в Амапале (Гондурас) (51 км)
Погода в Чинандеге (Никарагуа) (75 км)
Погода в Тегусигальпе (Гондурас) (83 км)
Погода в Хинотеге (Никарагуа) (132 км)
Погода в Ла-Эсперансе (Гондурас) (155 км)
Погода в Манагуа (Никарагуа) (168 км)
Погода в Йоро (Гондурас) (208 км)
Погода в Катакамасе (Гондурас) (223 км)
Погода в Хуигальпе (Никарагуа) (237 км)
Погода в Санта-Роза-де-Копане (Гондурас) (239 км)

Пояснения к столбцам:

Ветер - указаны скорость ветра в м/с - средняя за 10 мин, порывы в срок и между сроками (в фигурных скобках) и направление, откуда дует ветер: С - северный, СВ - северо-восточный, В - восточный, ЮВ - юго-восточный, Ю - южный, ЮЗ - юго-западный, З - западный, СЗ - северо-западный.
Видимость - горизонтальная дальность видимости в метрах или километрах. При видимости от 1 до 10 км при отсутствии осадков обычно наблюдается дымка, при ухудшении видимости до 1 км и менее - туман. В сухую погоду видимость может ухудшаться дымом, пылью или мглою.
Явления - указаны атмосферные явления, наблюдавшиеся в срок или в последний час перед сроком; фигурными скобками обозначены явления, наблюдавшиеся между сроками (за 1-3 часа до срока); квадратными скобками обозначены град или гололедные отложения с указанием их диаметра в мм.
Облачность - указаны через наклонную черту общая и нижняя облачность в баллах и высота нижней границы облаков в метрах; квадратными скобками обозначены формы облаков: Ci - перистые, Cs - перисто-слоистые, Cc - перисто-кучевые, Ac - высококучевые, As - высокослоистые, Sc - слоисто-кучевые, Ns - слоисто-дождевые, Cu - кучевые, Cb - кучево-дождевые. Подробнее классификацию облаков см. в Атласе облаков (PDF).
T - Температура воздуха - температура, измеренная на высоте 2 м над землей.
Td - Температура точки росы - температура, при понижении до которой содержащийся в воздухе водяной пар достигнет насыщения.
f - Относительная влажность воздуха - влажноcть воздуха, измеренная на высоте 2 м над землей.
Te - Эффективная температура - температура, которую ощущает одетый по сезону человек в тени. Характеристика душности погоды. При расчете учитывается влияние влажности воздуха и скорости ветра на теплоощущения человека.
Tes - Эффективная температура на солнце - температура, которую ощущает человек, с поправкой на солнечный нагрев. Характеристика знойности погоды. Зависит от высоты солнца над горизонтом, облачности и скорости ветра. Ночью, в пасмурную погоду, а также при ветре 12 м/с и более поправка равна нулю.
P - Атмосферное давление - приведенное к уровню моря атмосферное давление.
Po - Атмосферное давление - измеренное на уровне метеостанции атмосферное давление.
Tmin - Минимальная температура - минимум температуры воздуха на высоте 2 м над землей.
Tmax - Максимальная температура - максимум температуры воздуха на высоте 2 м над землей.
R - Количество осадков - Количество выпавших осадков за период времени, мм. При наведении курсора мыши на число - период времени, за который выпало указанное количество осадков.
R24 - Количество осадков - Количество выпавших осадков за 24 часа, мм.
S - Снежный покров - Высота снежного покрова, см. При наведении курсора мыши на число - состояние снежного покрова и степень покрытия местности в баллах.